Regional Weather Roundup
Issued by NWS

Home | Current Version | Previous Version | Graphics & Text | Print | Product List | Glossary On
Versions: 1 2 3 4 5 6 7 8 9 10 11 12 13 14 15 16 17 18 19 20 21 22 23 24 25 26 27 28 29 30 31 32 33 34 35 36 37 38 39 40 41 42 43 44 45 46 47 48 49 50
000
ASUS45 KBOU 221807
RWRCO

WEATHER ROUNDUP FOR COLORADO
NATIONAL WEATHER SERVICE DENVER/BOULDER CO
1200 PM MDT WED MAR 22 2017

NOTE: "FAIR" INDICATES FEW OR NO CLOUDS BELOW 12000 FEET WITH NO
SIGNIFICANT WEATHER AND/OR OBSTRUCTIONS TO VISIBILITY.

COZ001>005-013-030-031-221900-
...NORTHWEST COLORADO...

CITY           SKY/WX    TMP DP  RH WIND       PRES   REMARKS
CRAIG          CLOUDY    67  22  18 S23G29    29.99F
HAYDEN         FAIR      63  19  19 S29G39    30.01F
MEEKER         FAIR      63  20  19 SW21G26   30.01F
MOUNT WERNER   NOT AVBL
STEAMBOAT SPGS CLOUDY    56  27  33 CALM      30.04S
WALDEN         NOT AVBL
$$

COZ006>008-011-221900-
...WEST CENTRAL VALLEYS...

CITY           SKY/WX    TMP DP  RH WIND       PRES   REMARKS
GRAND JUNCTION PTSUNNY   67  26  21 S14       29.97F
MONTROSE       FAIR      60  30  32 E9        30.04F
EAGLE          SUNNY     64  19  17 W30G37    30.07F
RIFLE          FAIR      67  22  18 S15       30.01F
DELTA          FAIR      64  30  27 NE7       30.02S
NUCLA          FAIR      64  21  19 SW15G24   30.07F
$$

COZ017>023-064>068-221900-
...SOUTHWEST COLORADO...

CITY           SKY/WX    TMP DP  RH WIND       PRES   REMARKS
DURANGO        FAIR      58  28  32 VRB7      30.15F
CORTEZ         FAIR      66  29  24 SE17      30.08F
PAGOSA SPRINGS PTSUNNY   55  27  33 E3        30.22F
TELLURIDE      FAIR      53  22  29 SE10G17   30.21S
WOLF CREEK PAS CLOUDY    34  23  64 S18G30    30.41S WCI  23
$$

COZ009-010-012-014-032>034-037-058>063-221900-
...CENTRAL COLORADO...

CITY           SKY/WX    TMP DP  RH WIND       PRES   REMARKS
ASPEN          FAIR      59  13  16 SW10G28   30.10F
BUENA VISTA    FAIR      62   9  12 SW12G33   30.12F
COPPER MTN     FAIR      43  10  26 W18G33    30.30F
BERTHOUD PASS  FAIR      36  27  69 W30G43    30.29F
COTTONWOOD PAS FAIR      59   9  13 SW7G17    30.22F
GUNNISON       FAIR      46  34  62 SE6       30.16F
KREMMLING      FAIR      66  14  13 SW23G31   30.09F
LEADVILLE      FAIR      48  13  24 S16G22    30.19F
MONARCH PASS   CLOUDY    41  18  38 W21G30    30.42F
SALIDA         FAIR      64  20  18 SW6       30.19F
SUNLIGHT       CLOUDY    41  19  42 S8G20     30.27S
WILKERSON PASS FAIR      46  14  27 SW17G24   30.27F
$$

COZ069>075-221900-
...SAN LUIS VALLEY/SANGRE DE CRISTO MOUNTAINS...

CITY           SKY/WX    TMP DP  RH WIND       PRES   REMARKS
ALAMOSA        FAIR      64  16  15 SW28G38   30.11F
LA VETA PASS   NOT AVBL
SAGUACHE       FAIR      61  25  25 S5        30.16F
$$

COZ035-036-038>040-221900-
...NORTHERN COLORADO FRONT RANGE...

CITY           SKY/WX    TMP DP  RH WIND       PRES   REMARKS
DENVER INTL AP FAIR      59  34  39 N9        29.97F
DMNS CITY PARK   N/A     56  33  42 N7G14     29.97F
AURORA         PTSUNNY   60  34  37 N7        29.97F
FRONT RANGE AP MOSUNNY   63  36  36 NE6       29.98F
ERIE MUNI ARPT FAIR      52  32  46 NE3       29.98F
BOULDER MUN AP FAIR      52  34  50 CALM      29.98F
CENTENNIAL     PTSUNNY   62  34  35 N10       29.97F
BROOMFIELD     PTSUNNY   54  34  47 N5        29.99F
FORT COLLINS   FAIR      53  34  48 E8        29.98F
LONGMONT       FAIR      57  35  43 CALM      29.99F
$$

COZ041-046-047-076>085-087-088-221900-
...PIKES PEAK/PALMER DIVIDE AND SOUTHERN FOOTHILLS...

CITY           SKY/WX    TMP DP  RH WIND       PRES   REMARKS
COLO. SPRINGS  PTSUNNY   50  31  48 S6        30.06F
A. F. ACADEMY  FAIR      52  31  44 S9        30.05F
SCHRIEVER AFB  FAIR      51  33  50 SE8G20    30.06F
ELLICOTT         N/A    N/A N/A N/A S13G18    30.04F
FALCON         FAIR      54  32  43 S13       30.08F
FORT CARSON    FAIR      52  31  45 VRB5      30.05F
LIMON          FAIR      55  37  50 S15       30.04F
MONUMENT HILL  FAIR      63  28  27 S12       30.06S
TRINIDAD       FAIR      68  35  29 SE8       30.02F
$$

COZ042>045-048>051-090-091-221900-
...NORTHEAST COLORADO...

CITY           SKY/WX    TMP DP  RH WIND       PRES   REMARKS
GREELEY ARPT   FAIR      53  37  54 E3        29.99F
AKRON          FAIR      57  33  40 S22G28    30.00F
BURLINGTON     FAIR      50  35  56 S25G33    30.08F
WRAY           FAIR      52  34  50 S17G30    30.08F
STERLING       FAIR      57  34  41 S16       29.99F
HOLYOKE        FAIR      54  36  50 S23G30    30.07F
FORT MORGAN    FAIR      59  32  36 SE10G16   29.99F
$$

COZ086-089-092>099-221900-
...SOUTHEAST COLORADO...

CITY           SKY/WX    TMP DP  RH WIND       PRES   REMARKS
PUEBLO         FAIR      55  34  45 E5        30.04F
LA JUNTA       FAIR      56  36  47 VRB5      30.05F
LAMAR          FAIR      58  37  45 S20G28    30.06F
SPRINGFIELD      N/A     55  38  52 S23G32    30.10F
$$



USA.gov is the U.S. government's official web portal to all federal, state and local government web resources and services.